Location: Hohe Wand Kleine Kanzel
(47.8330°N, 16.0170°E)
Time: 13:09:48
(UTC+02:00)

CUTE-I - Visible Passes

Search period start: 27 September 2021 00:00
Search period end: 07 October 2021 00:00
Orbit: 810 x 825 km, 98.7° (Epoch: 26 September)

Date Brightness Start Highest point End Pass type
(mag) Time Alt. Az. Time Alt. Az. Time Alt. Az.
28 Sep ? 20:05:19 10° WSW 20:07:21 12° W 20:09:24 10° WNW visible
29 Sep ? 19:41:49 10° SW 19:45:30 19° W 19:49:12 10° NW visible
30 Sep ? 06:13:47 10° NE 06:17:43 21° E 06:21:38 10° SE visible
30 Sep ? 19:19:11 10° SSW 19:23:44 28° W 19:28:16 10° NW visible
01 Oct ? 05:53:18 10° ENE 05:55:53 14° E 05:58:28 10° ESE visible
03 Oct ? 19:56:48 10° WSW 19:59:34 14° W 20:02:21 10° NW visible
04 Oct ? 06:27:16 10° NE 06:31:44 27° E 06:36:11 10° SSE visible
04 Oct ? 19:33:43 10° SW 19:37:45 22° W 19:41:47 10° NW visible
05 Oct ? 06:06:23 10° NE 06:09:58 18° E 06:13:30 10° SE visible
05 Oct ? 19:11:16 10° SSW 19:16:00 32° W 19:20:45 10° NNW visible
06 Oct ? 05:46:22 10° ENE 05:48:05 11° E 05:49:49 10° ESE visible
06 Oct ? 18:49:10 10° S 18:54:19 48° W 18:59:28 10° NNW visible
